Location: Unspecified
(0.0000°N, 0.0000°E)
Time: 16:31:19
(UTC+00:00)

deb r/b Ablestar - Pass Details

Date: 13 March 2026
Orbit: 726 x 907 km, 66.9° (Epoch: 18 April)

Event Time Altitude Azimuth Distance (km) Brightness Sun altitude
Rises 18:54:08 0° 167° (SSE) 3,391 ? -11.2°
Reaches altitude 10° 18:57:36 10° 145° (SE) 2,491 ? -12.0°
Maximum altitude 19:00:57 16° 109° (ESE) 2,135 ? -12.9°
Enters shadow 19:01:14 16° 106° (ESE) 2,140 ? -12.9°
